Salinas, CA

12:02 AM PST on November 23, 2017 (GMT -0800)
Salinas Municipal

Weather History for KSNS - December, 2012

Change the Weather History Date:

Friday, December 7, 2012

  Actual Average Record
Temperature  
Mean Temperature 53 °F 52 °F  
Max Temperature 63 °F 62 °F 79 °F (1938)
Min Temperature 43 °F 41 °F 28 °F (1978)
Degree Days  
Heating Degree Days 12 14  
Month to date heating degree days 63 92  
Since 1 July heating degree days 495 710  
Cooling Degree Days 0 0  
Month to date cooling degree days 0 0  
Year to date cooling degree days 110 130  
Growing Degree Days 2 (Base 50)    
Moisture  
Dew Point 46 °F    
Average Humidity 80    
Maximum Humidity 100    
Minimum Humidity 60    
Precipitation  
Precipitation 0.00 in 0.06 in 0.97 in (2004)
Month to date precipitation 0.98 0.38  
Year to date precipitation 11.42 11.28  
Since 1 July precipitation 4.30  
Sea Level Pressure  
Sea Level Pressure 30.11 in    
Wind  
Wind Speed 3 mph (ESE)    
Max Wind Speed 13 mph    
Max Gust Speed 15 mph    
Visibility 6 miles    
Events Fog    
T = Trace of Precipitation, MM = Missing Value Source: NWS Daily Summary

Daily Weather History Graph

Daily Weather History Graph

Search for Another Location

Airport or City:

Trip Planner

Search our weather history database for the weather conditions in past years. The results will help you decide how hot, cold, wet, or windy it might be!

Date:

Astronomy

Dec. 07, 2012 Rise Set
Actual Time 7:05 AM PST 4:50 PM PST
Civil Twilight 6:37 AM PST 5:19 PM PST
Nautical Twilight 6:05 AM PST 5:51 PM PST
Astronomical Twilight 5:33 AM PST 6:22 PM PST
Moon 12:39 AM PST (12/7) 12:42 PM PST (12/7)
Length of Visible Light 10h 41m
Length of Day
9h 44m
Last Quarter, 37% of the Moon is Illuminated
Dec 7
Last Quarter
Dec 13
New
Dec 19
First Quarter
Dec 28
Full
Jan 4
Last Quarter

Hourly Weather History & Observations

Time (PST) Temp. Windchill Dew Point Humidity Pressure Visibility Wind Dir Wind Speed Gust Speed Precip Events Conditions
12:53 AM 48.0 °F - 46.0 °F 93% 30.13 in 10.0 mi Calm Calm - N/A   Clear
1:53 AM 46.0 °F 44.8 °F 45.0 °F 96% 30.13 in 7.0 mi ENE 3.5 mph - N/A   Clear
2:53 AM 46.0 °F - 44.1 °F 93% 30.13 in 7.0 mi Calm Calm - N/A   Clear
4:27 AM 44.6 °F 42.2 °F 42.8 °F 93% 30.09 in 5.0 mi East 4.6 mph - N/A   Partly Cloudy
4:32 AM 44.6 °F 42.2 °F 42.8 °F 93% 30.09 in 1.8 mi ESE 4.6 mph - N/A   Scattered Clouds
4:37 AM 44.6 °F - 42.8 °F 93% 30.09 in 0.8 mi Calm Calm - N/A   Mist
4:53 AM 43.0 °F 41.3 °F 42.1 °F 97% 30.13 in 0.2 mi ENE 3.5 mph - N/A Fog Fog
5:10 AM 42.8 °F 41.1 °F 42.8 °F 100% 30.10 in 1.0 mi East 3.5 mph - N/A   Mist
5:15 AM 42.8 °F 41.1 °F 42.8 °F 100% 30.10 in 2.0 mi ESE 3.5 mph - N/A   Scattered Clouds
5:23 AM 42.8 °F 41.1 °F 42.8 °F 100% 30.10 in 7.0 mi ESE 3.5 mph - N/A   Partly Cloudy
5:53 AM 43.0 °F - 42.1 °F 97% 30.13 in 6.0 mi Calm Calm - N/A   Clear
6:53 AM 43.0 °F - 42.1 °F 97% 30.14 in 8.0 mi Calm Calm - N/A   Clear
7:53 AM 44.1 °F 42.5 °F 43.0 °F 96% 30.15 in 7.0 mi SSW 3.5 mph - N/A   Clear
8:53 AM 46.0 °F 43.9 °F 44.1 °F 93% 30.17 in 10.0 mi SE 4.6 mph - N/A   Clear
9:53 AM 50.0 °F - 46.0 °F 86% 30.17 in 10.0 mi SSE 3.5 mph - N/A   Clear
10:53 AM 54.0 °F - 48.0 °F 80% 30.16 in 10.0 mi Calm Calm - 0.01 in   Clear
11:53 AM 57.0 °F - 48.9 °F 74% 30.14 in 10.0 mi Calm Calm - N/A   Clear
12:53 PM 63.0 °F - 50.0 °F 63% 30.11 in 10.0 mi WSW 5.8 mph - N/A   Clear
1:53 PM 63.0 °F - 48.9 °F 60% 30.08 in 10.0 mi West 9.2 mph - N/A   Clear
2:53 PM 61.0 °F - 48.9 °F 64% 30.08 in 10.0 mi West 6.9 mph - N/A   Clear
3:53 PM 60.1 °F - 50.0 °F 69% 30.09 in 10.0 mi West 9.2 mph - N/A   Clear
5:53 PM 55.0 °F - 51.1 °F 86% 30.10 in 10.0 mi Calm Calm - N/A   Clear
6:53 PM 53.1 °F - 50.0 °F 89% 30.09 in 9.0 mi Calm Calm - N/A   Clear
7:53 PM 51.1 °F - 48.0 °F 89% 30.10 in 9.0 mi North 3.5 mph - N/A   Clear
8:36 PM 50.0 °F - 48.2 °F 94% 30.08 in 10.0 mi Calm Calm - N/A   Scattered Clouds
8:44 PM 51.8 °F - 48.2 °F 88% 30.08 in 10.0 mi NNW 3.5 mph - N/A   Mostly Cloudy
8:53 PM 50.0 °F - 46.9 °F 89% 30.11 in 10.0 mi Calm Calm - N/A   Overcast
9:53 PM 48.0 °F - 46.0 °F 93% 30.10 in 7.0 mi Calm Calm - N/A   Partly Cloudy
10:16 PM 48.2 °F - 46.4 °F 93% 30.07 in 1.5 mi Calm Calm - N/A   Scattered Clouds
10:18 PM 48.2 °F - 46.4 °F 93% 30.07 in 0.8 mi Calm Calm - N/A   Mist
10:30 PM 48.2 °F - 46.4 °F 93% 30.07 in 0.2 mi Calm Calm - N/A Fog Fog
10:53 PM 48.0 °F - 48.0 °F 100% 30.10 in 0.2 mi Calm Calm - N/A Fog Fog
11:50 PM 48.2 °F - 48.2 °F 100% 30.07 in 0.2 mi Calm Calm - N/A Fog Fog
11:53 PM 48.0 °F - 48.0 °F 100% 30.10 in 0.2 mi Calm Calm - N/A Fog Fog